TimeCST,TemperatureF,Dew PointF,Humidity,Sea Level PressureIn,VisibilityMPH,Wind Direction,Wind SpeedMPH,Gust SpeedMPH,PrecipitationIn,Events,Conditions,WindDirDegrees,DateUTC
12:13 AM,23.7,12.0,61,29.71,10.0,South,16.1,23.0,N/A,,Overcast,190,2013-01-16 06:13:00
12:33 AM,23.9,12.7,62,29.70,10.0,SSW,13.8,19.6,N/A,,Overcast,200,2013-01-16 06:33:00
12:53 AM,23.9,13.6,65,29.68,10.0,SSW,16.1,-,N/A,Snow,Light Snow,200,2013-01-16 06:53:00
1:13 AM,23.9,15.4,70,29.67,10.0,SSW,17.3,23.0,N/A,Snow,Light Snow,210,2013-01-16 07:13:00
1:33 AM,24.6,17.6,75,29.66,7.0,SSW,18.4,25.3,N/A,Snow,Light Snow,210,2013-01-16 07:33:00
1:53 AM,24.4,19.9,83,29.66,4.0,SSW,19.6,26.5,N/A,Snow,Light Snow,210,2013-01-16 07:53:00
2:33 AM,24.6,21.0,86,29.65,10.0,SSW,18.4,25.3,N/A,,Overcast,210,2013-01-16 08:33:00
3:13 AM,26.2,21.6,82,29.63,7.0,SW,12.7,19.6,N/A,,Overcast,220,2013-01-16 09:13:00
3:33 AM,27.3,23.9,87,29.63,10.0,SW,15.0,-,N/A,,Overcast,220,2013-01-16 09:33:00
3:53 AM,27.5,25.3,92,29.63,3.0,WSW,15.0,20.7,N/A,Snow,Light Snow,240,2013-01-16 09:53:00
4:13 AM,28.0,26.2,93,29.62,4.0,WSW,12.7,-,N/A,Snow,Light Snow,240,2013-01-16 10:13:00
4:33 AM,28.4,27.0,94,29.62,3.0,SW,12.7,-,N/A,Snow,Light Snow,230,2013-01-16 10:33:00
4:53 AM,29.1,27.5,94,29.62,5.0,WSW,11.5,-,N/A,,Overcast,240,2013-01-16 10:53:00
5:13 AM,29.8,28.4,94,29.62,2.5,West,10.4,-,N/A,Snow,Light Snow,260,2013-01-16 11:13:00
5:33 AM,30.7,29.5,95,29.63,10.0,West,11.5,-,N/A,,Overcast,260,2013-01-16 11:33:00
5:53 AM,31.1,30.0,96,29.63,10.0,West,9.2,-,N/A,,Overcast,260,2013-01-16 11:53:00
6:33 AM,31.6,30.2,94,29.63,10.0,WSW,8.1,-,N/A,,Overcast,250,2013-01-16 12:33:00
6:53 AM,32.0,31.3,97,29.63,10.0,West,9.2,-,N/A,,Overcast,260,2013-01-16 12:53:00
7:13 AM,32.0,30.9,96,29.64,10.0,West,9.2,-,N/A,,Mostly Cloudy,260,2013-01-16 13:13:00
7:33 AM,32.0,30.9,96,29.66,10.0,West,9.2,-,N/A,,Clear,280,2013-01-16 13:33:00
7:53 AM,32.9,31.1,93,29.68,10.0,West,12.7,-,N/A,,Mostly Cloudy,280,2013-01-16 13:53:00
8:13 AM,33.3,30.9,91,29.69,10.0,WNW,10.4,-,N/A,,Overcast,290,2013-01-16 14:13:00
8:34 AM,33.3,29.1,85,29.69,10.0,WNW,12.7,19.6,N/A,,Overcast,290,2013-01-16 14:34:00
8:53 AM,32.9,26.6,78,29.71,10.0,NW,12.7,-,N/A,,Overcast,310,2013-01-16 14:53:00
9:13 AM,32.2,26.6,80,29.72,10.0,WNW,8.1,-,N/A,,Overcast,300,2013-01-16 15:13:00
9:34 AM,32.0,27.3,83,29.73,10.0,WNW,9.2,-,N/A,,Overcast,300,2013-01-16 15:34:00
9:53 AM,32.0,27.3,83,29.74,10.0,WNW,6.9,-,N/A,,Overcast,290,2013-01-16 15:53:00
10:13 AM,32.0,27.3,83,29.74,10.0,WNW,6.9,-,N/A,,Overcast,300,2013-01-16 16:13:00
10:33 AM,31.5,26.6,82,29.75,7.0,WNW,6.9,-,N/A,Snow,Light Snow,300,2013-01-16 16:33:00
10:53 AM,30.4,26.2,85,29.77,2.5,NW,11.5,-,N/A,Snow,Light Snow,320,2013-01-16 16:53:00
11:13 AM,27.9,23.9,85,29.78,1.5,NNW,11.5,-,N/A,Snow,Light Snow,330,2013-01-16 17:13:00
11:33 AM,27.0,23.0,85,29.79,2.0,NW,9.2,-,N/A,Snow,Light Snow,310,2013-01-16 17:33:00
11:53 AM,26.1,22.8,88,29.79,1.0,NW,10.4,-,N/A,Snow,Light Snow,310,2013-01-16 17:53:00
12:13 PM,25.7,22.8,89,29.80,1.0,NW,8.1,-,N/A,Snow,Light Snow,310,2013-01-16 18:13:00
12:33 PM,24.8,22.1,89,29.80,1.0,NW,6.9,-,N/A,Snow,Light Snow,320,2013-01-16 18:33:00
12:53 PM,25.0,22.1,89,29.82,1.5,NW,8.1,-,N/A,Snow,Light Snow,310,2013-01-16 18:53:00
1:13 PM,24.8,21.7,88,29.82,2.5,NW,8.1,-,N/A,Snow,Light Snow,320,2013-01-16 19:13:00
1:33 PM,24.4,20.3,84,29.84,2.5,NW,10.4,-,N/A,Snow,Light Snow,320,2013-01-16 19:33:00
2:14 PM,23.4,18.9,83,29.87,10.0,NW,13.8,-,N/A,,Overcast,310,2013-01-16 20:14:00
2:33 PM,23.4,18.1,80,29.88,10.0,NW,11.5,-,N/A,,Overcast,320,2013-01-16 20:33:00
2:53 PM,23.0,17.6,80,29.90,10.0,NW,11.5,-,N/A,,Overcast,320,2013-01-16 20:53:00
3:13 PM,22.8,16.3,76,29.91,10.0,NW,13.8,-,N/A,,Overcast,320,2013-01-16 21:13:00
3:33 PM,22.3,13.8,70,29.93,10.0,NW,15.0,18.4,N/A,,Scattered Clouds,320,2013-01-16 21:33:00
3:53 PM,21.7,12.2,67,29.95,10.0,WNW,9.2,17.3,N/A,,Clear,300,2013-01-16 21:53:00
4:13 PM,20.7,10.6,65,29.98,10.0,NW,11.5,17.3,N/A,,Clear,310,2013-01-16 22:13:00
4:33 PM,19.2,6.8,59,30.00,10.0,NW,13.8,19.6,N/A,,Clear,310,2013-01-16 22:33:00
4:53 PM,18.0,7.3,63,30.02,10.0,WNW,9.2,-,N/A,,Clear,300,2013-01-16 22:53:00
5:13 PM,16.5,6.6,65,30.03,10.0,NW,9.2,-,N/A,,Clear,310,2013-01-16 23:13:00
5:53 PM,14.4,2.7,60,30.06,10.0,NW,6.9,-,N/A,,Clear,310,2013-01-16 23:53:00
6:13 PM,13.8,1.2,57,30.08,10.0,NW,6.9,-,N/A,,Clear,310,2013-01-17 00:13:00
6:33 PM,13.1,-0.9,54,30.09,10.0,NW,9.2,-,N/A,,Clear,320,2013-01-17 00:33:00
6:53 PM,12.2,-2.4,52,30.12,10.0,WNW,10.4,-,N/A,,Clear,300,2013-01-17 00:53:00
7:14 PM,10.8,-2.2,56,30.14,10.0,WNW,10.4,16.1,N/A,,Clear,300,2013-01-17 01:14:00
7:33 PM,9.9,-4.4,53,30.14,10.0,NW,10.4,-,N/A,,Clear,310,2013-01-17 01:33:00
7:53 PM,8.8,-3.8,57,30.15,10.0,WNW,8.1,-,N/A,,Clear,290,2013-01-17 01:53:00
8:14 PM,7.3,-3.1,62,30.16,10.0,West,9.2,-,N/A,,Clear,280,2013-01-17 02:14:00
8:33 PM,6.4,-4.2,62,30.18,10.0,WNW,6.9,-,N/A,,Clear,290,2013-01-17 02:33:00
8:53 PM,6.4,-5.8,57,30.17,10.0,West,6.9,-,N/A,,Clear,280,2013-01-17 02:53:00
9:13 PM,5.2,-6.0,60,30.18,10.0,WNW,6.9,-,N/A,,Clear,300,2013-01-17 03:13:00
9:33 PM,4.3,-5.8,63,30.20,10.0,West,11.5,-,N/A,,Clear,280,2013-01-17 03:33:00
9:53 PM,3.7,-3.6,71,30.21,10.0,West,6.9,-,N/A,,Clear,280,2013-01-17 03:53:00
10:13 PM,2.7,-4.0,74,30.22,10.0,West,13.8,-,N/A,,Clear,280,2013-01-17 04:13:00
10:33 PM,1.9,-4.5,74,30.22,10.0,WNW,6.9,-,N/A,,Clear,290,2013-01-17 04:33:00
10:53 PM,0.9,-5.6,74,30.23,10.0,West,10.4,-,N/A,,Clear,280,2013-01-17 04:53:00
11:13 PM,0.3,-6.2,74,30.23,10.0,WNW,8.1,-,N/A,,Clear,290,2013-01-17 05:13:00
11:34 PM,-0.4,-6.7,75,30.25,10.0,NW,8.1,-,N/A,,Clear,310,2013-01-17 05:34:00
11:53 PM,-0.4,-7.1,73,30.25,10.0,NW,6.9,-,N/A,,Clear,320,2013-01-17 05:53:00